Flag for Morocco Weather past 2 weeks in Tangier, Morocco

Now
68 °F

Passing clouds.


Feels Like: 68 °F
Forecast: 67 / 76 °F
Wind: 3 mph from Northwest

Location: Tanger Aerodrome

Current Time: Sep 1, 2015 at 5:07:22 AM

Latest Report: Sep 1, 2015 at 4:30 AM


Visibility: 0 mi

Pressure: 30.04 "Hg

Humidity: 88%

Dew point: 64 °F

Location of TangierLocation

Historic Weather in Tangier — Graph

°F

Tangier temperature yesterday

Maximum temperature yesterday: 77 °F (at 4:00 PM)
Minimum temperature yesterday: 70 °F (at 7:30 AM)
Average temperature yesterday: 73 °F

Past Weeks' High & Low Weather Summary

 TemperatureHumidityPressure
High91 °F (Aug 20, 12:30 PM)94% (Aug 21, 7:00 AM)30.09 "Hg (Aug 21, 7:00 AM)
Low61 °F (Aug 25, 7:00 AM)38% (Aug 20, 1:00 PM)29.83 "Hg (Aug 28, 5:00 PM)
Average76 °F69%29.99 "Hg
* Reported Aug 17 4:00 AM — Sep 1 4:00 AM, Tangier, Weather by CustomWeather, © 2015

Note: Actual official high and low records may vary slightly from our data, if they occured in-between our weather recording intervals... More about our weather records

Advertising

Tangier weather history for previous 24 hours

 ConditionsComfort  
Time TempWeatherWind HumidityBarometerVisibility
4:00 AM
Tue, Sep 1
70 °FPassing clouds.3 mph83%30.04 "Hg4 mi
3:30 AM70 °FPassing clouds.6 mph88%30.07 "Hg4 mi
3:00 AM70 °FPassing clouds.6 mph88%30.07 "Hg4 mi
2:30 AM70 °FPassing clouds.6 mph88%30.07 "Hg4 mi
2:00 AM70 °FPassing clouds.5 mph88%30.07 "Hg4 mi
1:30 AM70 °FPassing clouds.5 mph83%30.07 "Hg4 mi
1:00 AM70 °FPassing clouds.5 mph88%30.07 "Hg4 mi
12:00 AM72 °FPassing clouds.6 mph83%30.07 "Hg4 mi
5:30 PM
Mon, Aug 31
75 °FPartly sunny.12 mph74%30.01 "Hg5 mi
4:30 PM77 °FPartly sunny.12 mph69%30.01 "Hg5 mi
4:00 PM77 °FPartly sunny.10 mph69%30.01 "Hg5 mi
3:30 PM75 °FPartly sunny.10 mph74%30.04 "Hg5 mi
3:00 PM75 °FBroken clouds.9 mph74%30.04 "Hg5 mi
2:30 PM75 °FBroken clouds.8 mph74%30.04 "Hg5 mi
2:00 PM73 °FBroken clouds.10 mph78%30.04 "Hg5 mi
1:30 PM73 °FBroken clouds.9 mph78%30.07 "Hg4 mi
12:30 PM73 °FBroken clouds.10 mph78%30.07 "Hg4 mi
12:00 PM73 °FBroken clouds.9 mph78%30.07 "Hg4 mi
11:30 AM72 °FBroken clouds.12 mph88%30.07 "Hg3 mi
11:00 AM72 °FPartly sunny.7 mph88%30.04 "Hg3 mi
10:30 AM72 °FPartly sunny.5 mph94%30.04 "Hg3 mi
10:00 AM70 °FFog.6 mph94%30.04 "Hg2 mi
9:30 AM70 °FFog.6 mph94%30.01 "Hg1 mi
9:00 AM70 °FFog.6 mph94%30.01 "Hg1 mi
8:30 AM70 °FFog.5 mph94%30.01 "Hg1 mi
8:00 AM70 °FFog.2 mph94%30.01 "Hg0 mi
7:30 AM70 °FFog.3 mph94%30.01 "Hg1 mi
7:00 AM72 °FFog.5 mph88%29.98 "Hg1 mi
6:30 AM72 °FFog.5 mph94%29.98 "Hg1 mi
6:00 AM72 °FFog.2 mph94%29.98 "Hg2 mi
5:30 AM73 °FFog.No wind89%29.98 "Hg2 mi
5:00 AM73 °FPartly cloudy.5 mph89%29.98 "Hg4 mi
Weather by CustomWeather, © 2015

See weather overviewHow to use our weather pages